EW5859 Weather Reports


time (UTC)temp
C
wind
direction
speed
KPH
gust
KPH
rain 1hr
cm
rain 24hr
cm
rain mn
cm
humidity
%
barometer
mb
20260507154514 17 360 1.6 14.5 0.00 0.00 0.00 58 1017.1
20260507153004 17 360 6.4 17.7 0.00 0.00 0.00 56 1017.1
20260507151603 16 360 8.0 20.9 0.00 0.00 0.00 56 1017.3
20260507150011 16 360 6.4 17.7 0.00 0.00 0.00 62 1017.3
20260507144511 15 360 3.2 14.5 0.00 0.00 0.00 62 1017.5
20260507143103 15 360 1.6 14.5 0.00 0.00 0.00 66 1017.6
20260507141525 14 360 1.6 12.9 0.00 0.00 0.00 67 1017.7
20260507140022 13 360 4.8 9.7 0.00 0.00 0.00 66 1017.7
20260507134546 12 360 3.2 14.5 0.00 0.00 0.00 68 1017.8
20260507133056 11 360 1.6 9.7 0.00 0.00 0.00 71 1017.8
20260507131550 10 360 3.2 6.4 0.00 0.00 0.00 76 1017.9
20260507130036 8 360 0.0 4.8 0.00 0.00 0.00 84 1018.1
20260507124535 6 360 0.0 4.8 0.00 0.00 0.00 91 1018.1
20260507123002 5 360 0.0 3.2 0.00 0.00 0.00 92 1018.0
20260507121510 4 360 0.0 3.2 0.00 0.00 0.00 92 1018.1
20260507120046 2 77 0.0 3.2 0.00 0.00 0.00 92 1017.9
20260507114600 1 360 0.0 1.6 0.00 0.00 0.00 91 1017.8
20260507113012 1 360 0.0 0.0 0.00 0.00 0.00 91 1017.7
20260507111547 1 360 0.0 0.0 0.00 0.00 0.00 91 1017.6
20260507110031 1 360 0.0 0.0 0.00 0.00 0.00 91 1017.6
20260507104546 2 360 0.0 1.6 0.00 0.00 0.00 91 1017.5
20260507103052 2 360 0.0 1.6 0.00 0.00 0.00 90 1017.6
20260507101535 2 360 0.0 1.6 0.00 0.00 0.00 90 1017.6
20260507100035 2 360 0.0 1.6 0.00 0.00 0.00 89 1017.8
20260507094602 2 360 0.0 0.0 0.00 0.00 0.00 89 1017.9
20260507093036 2 360 0.0 0.0 0.00 0.00 0.00 89 1017.9
20260507091606 2 360 0.0 0.0 0.00 0.00 0.00 90 1017.9
20260507090051 3 360 0.0 1.6 0.00 0.00 0.00 89 1017.9
20260507084507 3 360 0.0 0.0 0.00 0.03 0.00 89 1017.7
20260507083015 3 360 0.0 0.0 0.00 0.03 0.00 90 1017.8
20260507081501 3 360 0.0 0.0 0.00 0.03 0.00 90 1017.8
20260507080050 3 360 0.0 0.0 0.00 0.03 0.00 90 1017.7
20260507074550 3 360 0.0 0.0 0.00 0.05 0.00 90 1017.8
20260507073059 3 360 0.0 0.0 0.00 0.05 0.00 90 1017.9
20260507071550 3 360 0.0 0.0 0.00 0.05 0.00 90 1018.0
20260507070015 3 360 0.0 0.0 0.00 0.05 0.00 90 1018.3
20260507064501 3 360 0.0 0.0 0.00 0.05 0.00 90 1018.4
20260507063140 3 360 0.0 0.0 0.00 0.05 0.00 90 1018.5
20260507061502 3 360 0.0 1.6 0.00 0.05 0.00 89 1018.6
20260507060052 3 360 0.0 0.0 0.00 0.05 0.00 87 1018.5
20260507054552 3 360 0.0 0.0 0.00 0.05 0.00 87 1018.6
20260507053029 3 360 0.0 0.0 0.00 0.05 0.00 86 1018.5
20260507051522 3 360 0.0 0.0 0.00 0.05 0.00 86 1018.4
20260507050029 3 360 0.0 0.0 0.00 0.05 0.00 86 1018.6
20260507044503 4 360 0.0 0.0 0.00 0.05 0.05 86 1018.6
20260507043021 4 360 0.0 3.2 0.00 0.05 0.05 86 1018.5
20260507041527 5 360 0.0 1.6 0.00 0.05 0.05 84 1018.7
20260507040101 5 360 0.0 0.0 0.00 0.05 0.05 84 1018.8
20260507034507 5 360 0.0 0.0 0.00 0.05 0.05 83 1018.7
20260507033029 6 360 0.0 0.0 0.00 0.05 0.05 82 1018.6
20260507031516 6 360 0.0 0.0 0.00 0.05 0.05 81 1018.6
20260507030008 6 360 0.0 1.6 0.00 0.05 0.05 80 1018.5
20260507024521 7 360 0.0 0.0 0.00 0.05 0.05 78 1018.3
20260507023034 7 360 0.0 0.0 0.00 0.05 0.05 76 1018.3
20260507021607 8 323 0.0 0.0 0.00 0.05 0.05 74 1018.1
20260507020104 10 323 0.0 1.6 0.00 0.05 0.05 69 1018.0
20260507014621 10 360 0.0 1.6 0.00 0.05 0.05 67 1017.8
20260507013003 11 360 0.0 0.0 0.00 0.05 0.05 63 1017.7
20260507011539 12 360 0.0 0.0 0.00 0.05 0.05 56 1017.5
20260507010107 12 360 1.6 4.8 0.00 0.05 0.05 49 1017.5
20260507004513 13 360 3.2 8.0 0.00 0.05 0.05 46 1017.4
20260507003001 13 360 3.2 12.9 0.00 0.05 0.05 42 1017.3
20260507001519 13 360 4.8 12.9 0.00 0.05 0.05 43 1017.3
20260507000047 14 360 4.8 12.9 0.00 0.05 0.05 40 1017.3
20260506234515 15 360 8.0 16.1 0.00 0.05 0.05 39 1017.3
20260506233028 15 360 8.0 14.5 0.00 0.05 0.05 39 1017.2
20260506231543 15 360 3.2 9.7 0.00 0.05 0.05 40 1017.2
20260506230104 15 360 9.7 17.7 0.00 0.05 0.05 41 1017.3
20260506224508 15 360 6.4 14.5 0.00 0.05 0.05 38 1017.2
20260506223021 15 360 9.7 17.7 0.00 0.05 0.05 39 1017.3
20260506221547 15 360 8.0 22.5 0.00 0.05 0.05 38 1017.3
20260506220008 15 360 9.7 20.9 0.00 0.05 0.05 39 1017.5
20260506214525 15 360 9.7 19.3 0.00 0.10 0.05 38 1017.7
20260506213040 15 360 6.4 19.3 0.00 0.10 0.05 39 1017.8
20260506211511 15 360 11.3 19.3 0.00 0.10 0.05 41 1017.9
20260506210008 15 360 14.5 25.7 0.00 0.10 0.05 42 1018.2
20260506204554 15 360 11.3 19.3 0.00 0.28 0.05 41 1018.2
20260506203004 15 360 8.0 24.1 0.00 0.28 0.05 41 1018.3
20260506201515 15 343 11.3 19.3 0.00 0.28 0.05 42 1018.6
20260506200035 15 360 11.3 19.3 0.00 0.28 0.05 42 1018.6
20260506194519 14 360 8.0 17.7 0.00 0.51 0.05 45 1018.8
20260506193030 14 360 8.0 20.9 0.00 0.51 0.05 43 1019.0
20260506191604 13 360 9.7 17.7 0.00 0.51 0.05 43 1019.1
20260506190016 13 355 6.4 17.7 0.00 0.51 0.05 44 1019.2
20260506184552 13 360 9.7 16.1 0.00 0.53 0.05 43 1019.4
20260506183029 13 360 9.7 20.9 0.00 0.53 0.05 42 1019.4
20260506181501 13 360 12.9 22.5 0.00 0.53 0.05 46 1019.3
20260506180005 13 360 6.4 17.7 0.00 0.53 0.05 44 1019.6
20260506174604 13 17 8.0 16.1 0.00 0.56 0.05 46 1019.8
20260506173046 13 360 8.0 17.7 0.00 0.56 0.05 44 1019.9
20260506171506 13 360 14.5 20.9 0.00 0.56 0.05 44 1019.9
20260506170019 13 360 9.7 22.5 0.00 0.56 0.05 45 1019.5
20260506164508 13 360 11.3 30.6 0.00 0.58 0.05 45 1019.6
20260506163038 13 360 11.3 20.9 0.00 0.58 0.05 52 1019.3
20260506161600 13 14 14.5 27.4 0.00 0.58 0.05 49 1019.1